Location: Cosy Dell
(34.2789°N, 117.4537°W)
Time: 20:41:56
(UTC+00:00)

CZ-2C R/B - Pass Details

Date: 14 July 2020
Orbit: 784 x 871 km, 98.3° (Epoch: 13 August)

Event Time Altitude Azimuth Distance (km) Brightness Sun altitude
Rises 04:29:20 0° 1° (N) 3,343 6.4 -15.6°
Reaches altitude 10° 04:31:55 10° 351° (N) 2,394 5.8 -16.0°
Maximum altitude 04:36:33 32° 290° (WNW) 1,339 4.4 -16.8°
Drops below altitude 10° 04:41:05 10° 228° (SW) 2,346 5.1 -17.5°
Sets 04:43:35 0° 219° (SW) 3,264 5.7 -17.8°
